Temp_Advection
nan nan nan nan nan nan nan nan nan nan nan nan nan nan nan nan nan nan nan nan nan nan nan nan nan nan nan nan nan nan nan nan nan nan nan nan nan nan
nan 0 0 0 0 0 0 0 0 0 0 0 0 0 0 -0 -0 -0 -1 -1 -0 -0 -0 -0 -0 -0 -0 -0 -0 -0 -0 -0 0 0 0 -0 -0 nan
nan 0 0 0 0 0 0 0 0 0 -0 -0 0 -0 -0 -1 -0 -1 -1 -1 -0 -0 -0 -0 -0 -0 -0 -0 -0 -0 -0 -0 -0 -0 0 1 0 nan
nan 0 0 0 0 0 0 0 0 0 -1 -1 -1 -0 -1 -1 -1 -1 -0 -0 -1 -0 -0 -1 -0 -0 -0 -0 -0 -1 -0 -0 -0 0 0 -0 -1 nan
nan 0 0 0 0 0 0 0 0 0 -0 -1 -2 -1 -1 -1 -1 -1 -1 -1 -1 -1 -0 -0 -0 -1 -1 -0 -0 -0 -0 -1 -1 -0 0 0 -0 nan
nan 0 0 0 0 0 0 0 0 0 0 -1 -2 -1 -1 -1 -1 -3 -2 -1 -1 -1 -1 -1 -1 -0 0 -0 -1 -0 -0 -0 -0 -1 -1 -1 0 nan
nan -0 -0 -0 0 0 0 0 0 0 -0 -0 -1 -2 -1 -1 -1 -1 -3 -4 -2 -1 -1 -1 -1 -1 -0 -0 -1 -0 -0 -1 -1 -0 0 -0 -1 nan
nan -0 -0 0 0 0 0 1 1 -0 -0 -0 -0 -1 -2 -1 -1 -1 -2 -3 -5 -3 -3 -2 -1 -2 -1 -1 -0 -0 -0 -0 -0 -1 -1 -0 -0 nan
nan -0 0 0 0 0 0 0 0 0 0 0 0 0 -1 -2 -2 -2 -1 -0 -2 -4 -6 -5 -2 -2 -1 -1 -0 -1 -1 -1 -1 -1 -1 -0 -0 nan
nan -0 -0 0 0 0 0 0 -0 0 0 0 0 0 0 0 0 -0 -2 -3 -1 -1 -2 -5 -4 -3 -2 -1 -1 -1 -2 -1 -1 -1 -1 -1 -2 nan
nan -0 -0 0 0 1 0 -0 -1 -0 0 0 0 0 0 -1 -0 0 -0 -1 -2 -2 -1 -1 -2 -5 -5 -2 -1 -1 -0 -1 -1 -1 -1 -0 -1 nan
nan 0 0 0 0 1 1 -1 -1 -1 0 -0 -0 0 0 -0 0 0 0 0 -0 -2 -1 -1 -2 -3 -5 -6 -1 -1 -3 -1 -1 -0 -0 0 -0 nan
nan -0 0 0 0 1 1 -0 -0 -0 -1 0 -0 -0 -0 -0 0 0 1 0 -0 -1 -0 1 -1 -1 -1 -4 -7 -6 -4 -2 -2 -2 -1 -1 -0 nan
nan -0 -0 -0 0 0 0 0 -1 -0 0 -0 -0 -0 -0 -0 -0 -0 0 0 0 -1 -0 2 1 -0 0 -1 -4 -6 -4 -3 -2 -3 -2 -1 0 nan
nan -0 -0 -1 -0 0 0 -0 0 -0 -0 -0 -0 -0 -0 -0 -0 -0 -0 -0 -0 0 0 0 1 1 1 -0 -3 -4 -2 -4 -2 -1 -2 -2 -2 nan
nan 0 -0 -1 -0 0 -0 -0 -0 0 -0 -0 -0 -0 -0 -0 -0 -1 -1 -1 -1 -0 1 0 0 0 -0 0 -1 -3 0 -1 -3 -2 -2 -2 -2 nan
nan 0 -0 -0 -0 -0 -0 -0 0 0 -0 -0 -0 -0 -0 -0 -0 -0 -1 -1 -1 -2 -0 0 0 0 0 0 -2 -1 0 -1 -2 -1 -2 -3 -3 nan
nan 0 0 0 0 0 0 0 0 0 -0 -0 -0 -0 -0 -0 -0 -0 -1 -1 -1 -1 -1 -1 -1 -2 -4 -2 2 0 -1 0 -1 -1 -0 -1 -5 nan
nan 0 0 0 0 0 0 0 0 0 -0 -0 -0 -0 -0 -0 -0 -0 -0 -1 -1 -1 -1 -0 -0 -1 -3 -8 -6 3 2 -0 -0 0 2 1 -3 nan
nan 0 0 0 0 0 0 0 0 0 -0 -0 -0 -0 -0 -0 -0 -0 -0 -1 -1 -1 -1 -0 0 1 1 -0 -9 -4 3 3 1 -2 -0 0 -2 nan
nan 0 0 0 0 0 0 0 0 0 -0 -0 -0 -0 -0 -0 -0 -0 -0 -0 -1 -1 -1 -0 0 0 1 1 -1 -5 -1 2 3 2 -0 -1 -3 nan
nan 0 0 0 0 0 0 0 0 0 0 -0 -0 -0 -0 -0 -0 -0 -0 -0 -0 -0 -1 -1 -0 -0 0 -0 -1 -2 -3 -1 0 3 3 2 1 nan
nan nan nan nan nan nan nan nan nan nan nan nan nan nan nan nan nan nan nan nan nan nan nan nan nan nan nan nan nan nan nan nan nan nan nan nan nan nan
Wind_Speed
12 11 11 11 12 12 12 12 13 11 12 15 16 19 20 19 19 19 19 19 20 21 22 22 23 24 25 28 31 33 33 34 35 37 36 35 34 35
10 10 10 11 11 12 12 13 14 15 14 13 18 20 19 21 22 22 23 23 24 26 27 28 29 28 28 28 29 30 31 32 35 37 39 41 40 39
10 10 11 11 12 12 13 14 14 16 20 23 22 22 24 26 26 28 29 28 28 29 30 31 31 32 32 32 33 33 32 32 32 34 37 41 42 43
9 9 11 11 11 12 13 14 15 17 20 23 24 24 24 24 26 27 27 27 28 28 29 30 31 33 34 35 36 37 37 36 36 36 36 37 39 43
9 10 11 12 12 13 15 15 16 17 19 23 25 24 26 24 27 27 27 27 27 28 28 29 30 31 33 35 36 37 39 40 40 41 40 40 40 40
9 10 12 11 12 14 15 15 17 18 20 21 24 26 27 26 28 29 30 28 29 27 27 29 31 31 31 31 33 35 37 39 41 42 44 45 45 44
11 12 13 12 14 14 14 15 16 17 18 20 22 24 25 26 27 27 31 32 33 30 28 27 29 30 29 30 32 34 36 38 40 42 44 46 48 50
12 13 14 14 14 15 16 15 15 16 18 20 22 23 25 25 27 30 33 33 35 30 32 35 35 35 32 30 30 30 30 31 34 37 41 44 47 50
13 14 14 15 16 16 17 17 19 19 20 22 25 25 27 27 27 27 27 27 29 34 36 43 36 36 33 32 29 29 30 30 31 33 37 40 43 47
15 15 15 16 16 17 18 19 20 20 21 22 23 24 23 20 20 22 28 31 33 32 27 41 38 37 34 34 34 31 27 25 22 22 25 29 33 39
16 16 17 17 17 16 17 20 21 22 22 23 22 21 21 22 22 24 27 27 31 31 25 28 31 41 41 39 29 25 9 21 33 35 35 38 39 40
17 17 17 18 19 18 17 21 23 22 22 22 21 20 20 21 21 21 22 25 26 28 17 30 37 35 33 36 11 19 39 34 35 34 35 36 37 39
18 18 18 18 20 20 18 20 20 18 21 20 20 21 21 20 19 19 21 23 25 28 26 27 32 35 33 43 45 46 43 39 39 39 38 38 37 35
19 20 19 19 19 18 18 16 18 19 18 19 20 19 19 18 18 19 20 22 23 27 25 24 31 31 35 42 48 47 46 42 40 39 36 37 41 41
20 21 20 19 18 16 16 15 14 15 16 16 17 17 18 19 20 20 20 21 22 23 23 22 25 28 30 37 45 46 47 46 35 33 42 42 44 41
22 23 19 20 17 15 15 14 14 14 14 14 15 16 17 18 19 20 20 21 23 21 20 21 22 25 31 34 38 44 40 43 43 43 43 44 43 40
25 25 23 19 16 15 14 13 12 12 12 13 14 15 17 18 18 18 19 20 22 23 23 21 22 25 28 32 38 37 36 39 40 45 44 47 46 41
25 25 22 18 16 14 12 11 11 10 10 11 13 16 18 18 18 17 18 19 21 22 23 24 26 30 31 31 27 31 37 38 44 43 41 46 49 41
22 19 17 16 14 12 10 10 8 8 9 10 13 14 14 13 15 15 17 18 20 21 21 23 26 27 31 37 38 28 33 41 42 44 43 43 49 49
23 20 16 15 13 11 10 9 6 4 5 7 8 9 11 12 14 16 17 18 19 21 23 21 22 25 26 32 38 37 29 38 39 42 44 44 45 45
21 18 17 15 13 12 10 9 7 4 3 4 5 7 11 13 15 17 18 18 19 21 24 23 22 22 25 28 34 37 33 28 31 33 35 38 43 44
17 17 16 15 13 12 11 10 8 4 1 1 5 9 14 17 19 20 20 21 20 21 24 24 23 23 25 27 32 34 35 32 29 26 22 23 27 34
19 18 16 15 13 12 11 11 9 8 4 2 7 11 16 19 22 22 22 21 21 22 24 24 24 24 24 26 27 31 32 32 35 34 26 26 24 22
Wind_Direction
239 239 239 241 243 243 243 240 239 240 234 231 236 242 247 253 258 261 265 266 271 273 273 272 271 267 265 264 263 262 261 260 261 261 259 259 258 257
243 244 245 244 245 245 246 247 243 242 242 235 235 243 248 254 262 267 271 272 272 274 274 274 274 275 273 272 270 269 266 264 262 261 258 258 259 259
245 247 249 248 246 246 246 249 251 252 256 252 250 249 256 263 267 270 274 274 274 274 272 273 274 274 273 273 273 272 272 270 269 267 263 260 259 258
254 256 254 255 257 256 252 251 251 255 262 267 268 270 273 272 274 276 276 276 276 276 274 273 273 271 272 272 272 272 273 272 271 269 269 268 266 261
258 256 257 258 258 261 259 258 258 260 265 272 278 280 283 286 285 283 282 282 281 278 278 276 274 273 273 272 272 272 273 273 273 272 270 269 268 265
270 268 264 261 261 261 263 266 266 266 269 273 277 283 288 291 293 296 293 292 290 286 282 281 278 276 274 276 277 275 273 270 268 269 269 268 268 267
277 275 275 274 272 269 269 266 270 275 277 281 283 285 288 293 298 304 302 300 297 299 295 288 286 282 284 283 280 277 274 274 272 269 267 266 266 266
281 282 281 280 276 272 266 265 266 276 282 283 287 290 292 296 301 302 303 306 309 298 297 293 298 299 299 293 287 286 285 280 275 272 270 268 266 264
279 280 280 277 276 274 274 271 271 273 273 279 284 288 293 296 298 299 298 298 295 298 305 300 307 303 304 299 301 300 294 289 284 279 274 271 268 266
278 280 280 278 277 277 279 278 278 277 278 278 282 287 288 294 294 290 289 293 295 299 310 303 308 304 303 303 307 304 300 297 297 296 294 290 283 274
276 279 281 279 281 282 280 279 281 283 282 285 283 279 279 279 285 288 290 293 298 301 314 300 307 306 308 307 305 299 305 306 304 302 298 295 289 283
270 274 276 281 281 275 271 277 279 285 286 282 281 283 284 287 286 283 288 292 298 308 307 308 304 316 315 313 293 287 296 299 299 294 292 294 293 291
270 275 280 282 282 281 275 272 285 286 283 287 291 292 291 288 284 282 285 289 292 289 306 301 300 304 300 301 302 306 310 313 307 305 303 300 297 292
271 276 282 288 288 282 284 281 278 293 291 289 291 292 294 294 290 289 289 288 289 292 298 296 294 298 299 299 300 307 311 312 312 308 305 303 300 298
269 275 282 287 284 284 280 286 289 286 288 289 291 292 294 296 296 295 292 291 290 291 295 294 295 299 295 296 300 306 312 315 311 308 309 305 301 298
253 264 272 282 283 279 280 280 281 283 287 290 293 296 300 302 302 303 302 301 297 296 297 300 300 299 299 298 301 303 312 306 312 315 313 307 306 302
244 256 266 273 272 274 277 281 285 288 292 294 299 306 310 310 308 308 308 307 307 309 309 311 310 307 303 304 303 309 312 310 316 320 316 309 306 304
239 250 258 259 261 264 269 273 279 283 282 289 299 306 312 315 315 315 313 312 312 315 315 321 323 319 314 309 318 319 318 316 321 317 310 303 305 308
235 245 251 251 251 251 254 254 264 270 278 295 305 309 312 318 320 319 318 318 317 318 321 331 330 329 325 321 320 330 319 321 322 323 318 307 302 307
235 247 245 242 241 238 236 233 237 260 298 310 320 323 324 333 335 333 331 327 324 327 328 332 335 332 325 318 312 323 334 331 329 321 318 314 307 307
242 237 231 229 228 228 225 223 219 238 305 359 7 1 353 351 350 345 338 336 332 329 330 336 339 332 327 324 319 325 329 335 334 320 321 319 319 316
231 227 220 219 221 223 225 226 217 219 225 53 32 20 13 7 359 350 344 338 337 337 334 336 338 340 341 333 328 329 331 337 340 340 341 331 317 302
223 220 217 217 219 223 225 226 222 220 236 320 359 5 2 0 358 352 345 339 338 340 339 337 344 345 344 342 339 338 343 345 347 343 351 357 339 328
Height
1516 1516 1515 1515 1517 1516 1518 1520 1522 1523 1523 1523 1523 1524 1525 1525 1524 1525 1524 1524 1523 1522 1522 1521 1523 1522 1521 1522 1523 1522 1522 1521 1522 1524 1525 1525 1526 1527
1513 1512 1512 1512 1513 1513 1514 1517 1518 1520 1519 1519 1519 1520 1521 1520 1520 1520 1519 1518 1518 1517 1516 1514 1515 1516 1514 1514 1514 1515 1514 1514 1513 1514 1515 1516 1516 1517
1510 1509 1509 1510 1510 1510 1511 1514 1515 1515 1515 1514 1517 1518 1516 1515 1515 1515 1513 1511 1511 1511 1509 1508 1507 1507 1507 1506 1506 1505 1505 1505 1505 1505 1505 1505 1506 1507
1506 1504 1507 1508 1507 1508 1508 1510 1511 1511 1510 1509 1510 1511 1511 1510 1507 1506 1507 1505 1504 1504 1501 1501 1500 1498 1498 1497 1498 1497 1497 1497 1496 1495 1495 1496 1496 1496
1504 1505 1504 1504 1503 1506 1507 1507 1507 1506 1506 1505 1504 1503 1503 1502 1499 1498 1498 1497 1497 1496 1495 1492 1492 1491 1490 1489 1489 1489 1489 1487 1486 1484 1485 1485 1485 1484
1503 1501 1503 1502 1500 1503 1503 1502 1502 1501 1502 1501 1498 1498 1495 1497 1494 1492 1490 1488 1487 1487 1488 1483 1483 1482 1482 1482 1481 1480 1479 1477 1476 1474 1473 1473 1473 1473
1501 1501 1499 1497 1498 1499 1498 1498 1498 1498 1497 1496 1495 1493 1491 1490 1489 1487 1483 1480 1478 1477 1475 1474 1475 1474 1474 1474 1471 1470 1468 1467 1465 1464 1463 1462 1461 1461
1498 1498 1495 1495 1495 1494 1494 1493 1495 1494 1493 1492 1489 1488 1486 1485 1484 1481 1479 1475 1469 1469 1466 1465 1465 1463 1463 1462 1460 1459 1459 1456 1453 1451 1449 1448 1447 1447
1494 1493 1493 1492 1491 1491 1491 1490 1489 1490 1489 1487 1484 1484 1482 1482 1478 1476 1475 1472 1467 1463 1462 1451 1456 1453 1453 1451 1450 1449 1447 1445 1443 1440 1438 1436 1434 1433
1490 1489 1488 1487 1487 1487 1486 1485 1485 1484 1483 1482 1480 1479 1477 1476 1475 1473 1470 1465 1461 1460 1460 1446 1447 1444 1443 1442 1441 1438 1437 1435 1433 1430 1428 1425 1423 1421
1486 1486 1485 1484 1483 1483 1481 1479 1478 1478 1478 1477 1475 1474 1473 1471 1469 1466 1465 1460 1454 1452 1456 1447 1441 1435 1433 1430 1431 1430 1429 1429 1426 1423 1420 1418 1415 1412
1482 1482 1481 1480 1479 1478 1477 1475 1473 1473 1472 1471 1469 1468 1466 1464 1464 1462 1458 1454 1452 1447 1449 1446 1438 1436 1423 1419 1421 1423 1424 1422 1418 1413 1410 1407 1404 1399
1477 1476 1476 1475 1474 1472 1471 1470 1469 1468 1465 1464 1463 1461 1460 1459 1458 1456 1453 1451 1448 1445 1447 1443 1434 1434 1432 1416 1409 1410 1409 1408 1404 1400 1398 1394 1391 1387
1471 1470 1470 1469 1468 1466 1465 1465 1463 1462 1460 1459 1458 1457 1455 1454 1452 1450 1448 1446 1444 1442 1442 1439 1432 1430 1425 1415 1404 1401 1400 1398 1393 1388 1384 1380 1377 1374
1465 1465 1464 1463 1462 1462 1461 1460 1459 1459 1457 1456 1455 1453 1451 1449 1446 1445 1443 1441 1439 1437 1435 1433 1429 1424 1419 1411 1400 1395 1389 1384 1383 1379 1375 1369 1364 1361
1460 1460 1460 1458 1458 1458 1457 1457 1456 1455 1455 1453 1451 1449 1447 1444 1442 1440 1437 1435 1432 1431 1429 1427 1423 1418 1411 1406 1399 1389 1388 1380 1373 1369 1361 1355 1351 1347
1454 1454 1455 1455 1454 1454 1454 1454 1452 1452 1450 1450 1447 1445 1443 1441 1438 1436 1433 1430 1427 1423 1421 1419 1415 1410 1405 1398 1390 1385 1377 1372 1367 1358 1352 1341 1337 1335
1447 1449 1450 1450 1450 1450 1450 1449 1449 1448 1447 1447 1445 1443 1440 1437 1434 1432 1429 1426 1422 1419 1415 1412 1406 1400 1395 1389 1385 1376 1371 1365 1359 1351 1344 1333 1322 1322
1442 1444 1445 1446 1446 1447 1446 1446 1446 1446 1446 1444 1443 1441 1438 1436 1433 1430 1426 1423 1419 1415 1412 1407 1402 1396 1389 1380 1374 1373 1365 1359 1349 1339 1334 1327 1315 1308
1438 1440 1441 1443 1444 1444 1444 1444 1444 1444 1444 1443 1441 1439 1437 1433 1430 1427 1423 1419 1415 1411 1406 1404 1399 1394 1388 1381 1371 1363 1365 1352 1345 1334 1325 1318 1309 1300
1433 1435 1437 1439 1441 1442 1443 1443 1443 1443 1442 1441 1440 1437 1434 1430 1427 1424 1420 1417 1412 1407 1401 1398 1395 1391 1385 1377 1367 1359 1354 1353 1344 1332 1322 1312 1300 1291
1430 1431 1433 1436 1438 1439 1440 1441 1442 1441 1440 1439 1437 1434 1432 1429 1425 1421 1417 1412 1408 1403 1398 1394 1390 1385 1380 1374 1365 1357 1349 1342 1338 1330 1323 1315 1305 1292
1426 1428 1431 1433 1435 1436 1437 1439 1439 1439 1438 1437 1434 1432 1429 1426 1423 1419 1416 1411 1405 1400 1396 1391 1386 1382 1377 1370 1363 1355 1347 1338 1328 1319 1315 1309 1303 1294